Regional Weather Roundup
Issued by NWS

Home | Current Version | Previous Version | Graphics & Text | Print | Product List | Glossary On
Versions: 1 2 3 4 5 6 7 8 9 10 11 12 13 14 15 16 17 18 19 20 21 22 23 24 25 26 27 28 29 30 31 32 33 34 35 36 37 38 39 40 41 42 43 44 45 46 47 48 49 50
312
ASUS45 KABQ 250410
RWRNM
NEW MEXICO REGIONAL WEATHER ROUNDUP
NATIONAL WEATHER SERVICE ALBUQUERQUE NM
900 PM MST FRI FEB 24 2017

NOTE: "FAIR" MEANS FEW OR NO CLOUDS BELOW 12,000 FEET AGL WITH NO
       SIGNIFICANT WEATHER OR OBSTRUCTIONS TO VISION.

      THIS PRODUCT IS RELEASED AS TWO VERSIONS.  ONE VERSION NEAR
      THE TOP OF THE HOUR CONTAINING PRELIMINARY DATA FROM ALBUQUERQUE
      AND OTHER STATIONS.  A FINAL VERSION WITH ADDITIONAL DATA IS
      ISSUED ABOUT 10 MINUTES AFTER THE HOUR.

NMZ501-503-504-510>518-250500-
NORTHWEST PLATEAU/NORTHCENTRAL MOUNTAINS

CITY           SKY/WX    TMP DP  RH WIND       PRES   REMARKS
FARMINGTON     FAIR      26   2  35 N6        30.05R WCI  19
LOS ALAMOS     FAIR      28  -1  28 W5        30.02R WCI  23
SANTA FE       FAIR      27  -5  24 N5        30.01R WCI  22
TAOS           FAIR      19  -2  38 N5        30.01R WCI  13
ANGEL FIRE     FAIR      19   1  43 SW12      29.98R WCI   7

$$
NMZ402-403-502-505>509-250500-
WESTCENTRAL MOUNTAINS/SOUTHWEST MOUNTAINS

CITY           SKY/WX    TMP DP  RH WIND       PRES   REMARKS
GALLUP         FAIR      25   2  37 W7        30.05R WCI  17
GRANTS         FAIR      21   2  43 W5        30.06R WCI  15
SILVER CITY    FAIR      38   9  29 W7        30.10R WCI  33

$$
NMZ407-409-411-412-250500-
SOUTHERN DESERTS

CITY           SKY/WX    TMP DP  RH WIND       PRES   REMARKS
DEMING         FAIR      44  13  28 NW10      30.08R
LAS CRUCES     FAIR      43   9  25 NW10      30.07R
HOLLOMAN AFB   FAIR      49   7  18 W16       30.06R
ALAMOGORDO     FAIR      48   5  17 SW8       30.06R
T OR C         FAIR      45   7  21 SE7       30.03R

$$
NMZ519>523-250500-
CENTRAL VALLEYS/CENTRAL HIGHLANDS

CITY           SKY/WX    TMP DP  RH WIND       PRES   REMARKS
ALBUQUERQUE    FAIR      37  -3  18 N7        30.05R WCI  32
DOUBLE EAGLE   CLEAR     27   0  31 NW5       30.04R WCI  21
MORIARTY ARPT  FAIR      22  -3  32 NW8       30.04R WCI  13
CLINES CORNERS FAIR      26  -6  24 NW6       30.03R WCI  19
BELEN          FAIR      35  -1  21 NW10      30.05R WCI  28
SOCORRO        FAIR      41   3  20 N10       30.03R

$$
NMZ524>526-539-540-250500-
SOUTHCENTRAL MOUNTAINS

CITY           SKY/WX    TMP DP  RH WIND       PRES   REMARKS
RUIDOSO        MOCLDY    32  -2  23 W9        30.06R WCI  24

$$
NMZ527>531-250500-
NORTHEAST HIGHLANDS/NORTHEAST PLAINS

CITY           SKY/WX    TMP DP  RH WIND       PRES   REMARKS
LAS VEGAS      FAIR      26  -7  23 W7        29.99R WCI  18
RATON          FAIR      21   9  59 NE10      29.98R WCI  10
CLAYTON        FAIR      20  11  68 NE9       30.06R WCI   9

$$
NMZ532>537-250500-
EASTCENTRAL PLAINS

CITY           SKY/WX    TMP DP  RH WIND       PRES   REMARKS
TUCUMCARI      FAIR      33  14  45 E10       30.05R WCI  25
CANNON AFB     NOT AVBL
CLOVIS AIRPORT FAIR      32  14  47 NE10      30.03R WCI  24

$$
NMZ028-029-538-250500-
SOUTHEAST PLAINS

CITY           SKY/WX    TMP DP  RH WIND       PRES   REMARKS
ROSWELL        FAIR      41   6  23 SW3         N/A
ARTESIA        FAIR      50   7  17 SW16      29.99R
CARLSBAD       FAIR      55   3  12 W17G25    29.98R
HOBBS          FAIR      43   7  22 CALM      30.02R


$$




USA.gov is the U.S. government's official web portal to all federal, state and local government web resources and services.